Location: Deurze
(52.9838°N, 6.6090°E)
Time: 19:05:42
(UTC+00:00)

NOSS 2-2 (C) - Pass Details

Date: 11 March 2026
Orbit: 377 x 1687 km, 63.3° (Epoch: 20 April)

Event Time Altitude Azimuth Distance (km) Brightness Sun altitude
Rises 18:25:37 0° 237° (WSW) 2,408 7.5 -9.1°
Reaches altitude 10° 18:27:48 10° 243° (WSW) 1,460 6.4 -9.4°
Maximum altitude 18:30:51 53° 322° (NW) 477 3.3 -9.9°
Drops below altitude 10° 18:33:47 10° 41° (NE) 1,412 5.1 -10.3°
Enters shadow 18:34:45 - 44° (NE) 1,827 5.6 -10.5°
